Terug naar catalogus

STARLINK-36346

ActiefCommunicatieSSO
NORAD 67818·PAYLOAD·🇺🇸 United States

Gelanceerd Feb 15, 2026 vanaf Vandenberg Space Force Base

Loading…

Volgende Passages (komende 24 uur)

TLE

VersSource: CelesTrak SupGP

Epoch: Sep 15, 2026, 03:31 UTC

1 67818C 26032X   26258.14701389 -.00055374  00000+0 -17191-2 0  2583
2 67818  97.2856  84.6956 0001727  91.2545 108.3163 15.33464165    11

Volg STARLINK-36346 in realtime met AllMySat

Download on the App Store